Weather in Asansol

India     23°40′03″N   86°56′09″E
temp.,
°C
wind,
m/s
gust,
m/s
humid.,
%
clouds,
%
prec.,
mm/h
press.,
hPa
HPBL,
m
13 june, sun
sun1323:30+27ene5890100 10.6 999350
02:30+26ene4791100 4.4 998371
05:30+26ene479282 5.6 999381
08:30+30e567345 0.4 999859
11:30+32e566295 1.6 9981320
14:30+32ese346198 1.7 996994
17:30+29e3582100 7.3 996408
20:30+28ene5886100 3.9 998375
14 june, mon
mon1423:30+27e3490100 12.8 998178
02:30+27ese238794 1.7 996128
05:30+27sse2585100 6.3 996250
08:30+30ese457050 1.7 998703
11:30+34se565676 4.3 9961621
14:30+33se4557100 2.9 9941377
17:30+32se4664100 6.5 993407
20:30+30s247311 4.8 995130
15 june, tue
tue1523:30+29se237594 4.9 99575
02:30+28ese2480100 0.3 993113
05:30+27ese3682100 8.4 994166
08:30+31e566659 2.4 995905
11:30+34e5553100 2.8 9941718
14:30+33ene4457100 0.3 9921475
17:30+29ene4677100 6.8 992335
20:30+28ne4981100 7.3 993489
16 june, wed
wed1623:30+27ene588894 9.3 993592
02:30+26ne599099 1.3 992654
05:30+26ene61191100 4.4 992619
08:30+27e71188100 1.8 993788
11:30+27e8108492 2.7 992880
14:30+30ese8106873 0.8 9911231
17:30+28se7978100 1.2 992943
20:30+27sse697999 0.1 995780
17 june, thu
thu1723:30+27sse6880100 0.2 995742
02:30+26sse4781100 0.1 995746
05:30+25s4590100 0.6 996382
08:30+26sw3782100 2.5 998728
11:30+29wsw366661 2.6 998786
14:30+32ssw245588 2.2 9961446
17:30+30ssw466669 4.9 997709
20:30+28ssw5107588 4.5 999457